Skip Navigation Links weather.gov 
NOAA logo-Select to go to the NOAA homepage NDBC Title GraphicClick to go to NDBC home page   Select to go to the NWS homepage
Home About Us Contact Us
 
 
    
    Station List

 Data Access
    Mobile Access
    Classic Maps
         Recent
         DART®
    Obs Search
    Ship Obs Report
    BuoyCAMs
    TAO
    DODS
    OceanSITES
    HF Radar
    OSMC
    Dial-A-Buoy
    RSS Feeds Image indicating link to RSS feed access page
    Web Widget
    Web Data Guide
    Maintenance Schedule
    Station Status Report

 Program Info
    TAO
    DART®
    IOOS®

 Publications
    NDBC PEA
    NDBC FONSI
    NDBC DQC Handbook

 Visitor Information
 
USA.gov is the U.S. government's official web portal to all federal, state and local government web resources and services.

Station SKXA2 - Skagway MXAK, AK Image indicating link to RSS feed of recent meteorological observations for station SKXA2

Owned and maintained by Marine Exchange of Alaska
C-MAN Station
59.448 N 135.326 W (59°26'54" N 135°19'35" W)

Site elevation: 4.6 m above mean sea level
Air temp height: 10.1 m above site elevation
Anemometer height: 10.1 m above site elevation
Barometer elevation: 14.6 m above mean sea level

Search And Rescue (SAR) Data

Meteorological Observations from Nearby Stations and Ships Image indicating link to RSS feed of recent meteorological observations near station SKXA2

Large icon indicates selected station.
yellow diamond Stations with recent data
red diamond Stations with no data in last 8 hours
     (24 hours for tsunami stations)


Conditions at SKXA2 as of
(12:13 pm AKDT)
2013 GMT on 03/31/2020:
     

Click on the graph icon in the table below to see a time series plot of the last five days of that observation.

5-day plot - Wind Direction Wind Direction (WDIR): N ( 360 deg true )
5-day plot - Wind Speed Wind Speed (WSPD): 27 kts
5-day plot - Wind Gust Wind Gust (GST): 37 kts
5-day plot - Atmospheric Pressure Atmospheric Pressure (PRES): 30.42 in
5-day plot - Air Temperature Air Temperature (ATMP): 21.7 °F
5-day plot - Dew Point Dew Point (DEWP): -2.9 °F
5-day plot - Wind Chill Wind Chill (CHILL): 3.4 °F
5-day plot - Wind Speed at 10 Meters Wind Speed at 10 meters (WSPD10M): 25 kts
5-day plot - Wind Speed at 10 Meters Wind Speed at 20 meters (WSPD20M): 29 kts
5-day plot - Wind Speed, Wind Gust and Atmospheric Pressure Combined plot of Wind Speed, Gust, and Air Pressure
Previous observations
5-day plot - Wind Direction 5-day plot - Wind Speed 5-day plot - Wind Gust 5-day plot - Wave Height 5-day plot - Dominant Wave Period 5-day plot - Average Period 5-day plot - Mean Wave Direction 5-day plot - Atmospheric Pressure 5-day plot - Pressure Tendency 5-day plot - Air Temperature 5-day plot - Water Temperature 5-day plot - Dew Point 5-day plot - Salinity 5-day plot - Visibility 5-day plot - Tide (above MLLW)
MM DD TIME
(AKDT)
WDIR WSPD
kts
GST
kts
WVHT
ft
DPD
sec
APD
sec
MWD PRES
in
PTDY
in
ATMP
°F
WTMP
°F
DEWP
°F
SAL
psu
VIS
nmi
TIDE
ft
033112:03 pm N 26 38----30.42- 21.6- -3.1---
033111:53 am N 27 39----30.42- 21.2- -3.1---
033111:43 am N 29 40----30.42- 20.7- -3.3---
033111:33 am N 26 40----30.42- 20.7- -3.6---
033111:23 am N 28 41----30.42- 20.5- -3.3---
033111:13 am N 25 39----30.42- 20.3- -3.6---
033111:03 am N 29 47----30.42- 19.8- -3.6---
033110:53 am N 31 43----30.42- 19.6- -3.6---
033110:43 am N 27 44----30.42- 19.4- -4.2---
033110:33 am N 27 39----30.42- 19.4- -4.0---
033110:23 am N 26 43----30.42- 19.0- -4.2---
033110:13 am N 25 43----30.42- 18.9- -4.2---
033110:03 am N 27 38----30.42- 18.3- -4.5---
0331 9:53 am N 26 38----30.41- 18.1- -4.7---
0331 9:43 am N 26 42----30.41- 17.8- -4.9---
0331 9:33 am N 23 39----30.42- 17.8- -4.5---
0331 9:23 am N 26 40----30.41- 17.2- -5.1---
0331 9:13 am N 30 43----30.40- 17.2- -4.7---
0331 9:03 am N 28 43----30.41- 17.1- -5.1---
0331 8:53 am N 26 44----30.40- 17.1- -5.3---
0331 8:43 am N 25 35----30.40- 17.1- -5.4---
0331 8:33 am N 26 37----30.40- 16.7- -5.6---
0331 8:23 am N 25 39----30.40- 16.7- -5.3---
0331 8:13 am N 24 38----30.40- 16.5- -5.3---
0331 8:03 am N 26 38----30.40- 16.3- -5.4---
0331 7:53 am N 23 36----30.40- 16.5- -5.1---
0331 7:43 am N 24 43----30.40- 16.5- -5.4---
0331 7:33 am N 23 34----30.40- 16.5- -5.3---
0331 7:23 am N 22 31----30.39- 16.7- -5.4---
0331 7:13 am N 23 36----30.38- 16.7- -5.3---
0331 7:03 am N 20 32----30.38- 16.5- -5.4---
0331 6:53 am N 25 35----30.38- 16.7- -5.6---
0331 6:43 am N 27 40----30.37- 16.7- -5.1---
0331 6:33 am N 27 41----30.37- 16.5- -5.4---
0331 6:23 am N 27 41----30.37- 16.7- -4.9---
0331 6:13 am N 24 38----30.37- 16.9- -4.9---
0331 6:03 am N 27 41----30.37- 16.9- -5.1---
0331 5:53 am N 28 40----30.36- 16.9- -4.9---
0331 5:43 am N 24 36----30.36- 17.1- -5.1---
0331 5:33 am N 23 32----30.36- 17.4- -4.5---
0331 5:23 am N 26 39----30.35- 17.4- -4.5---
0331 5:13 am N 27 41----30.35- 17.2- -4.7---
0331 5:03 am N 26 38----30.35- 17.4- -4.5---
0331 4:53 am N 24 36----30.35- 17.6- -4.2---
0331 4:43 am N 23 34----30.35- 17.4- -4.4---
0331 4:33 am N 25 43----30.35- 17.4- -4.2---
0331 4:23 am N 25 35----30.34- 17.4- -4.7---
0331 4:13 am N 24 38----30.34- 17.4- -4.7---
0331 4:03 am N 22 38----30.34- 17.6- -4.7---
0331 3:53 am N 24 36----30.34- 17.6- -4.5---
0331 3:43 am N 24 33----30.34- 17.6- -4.4---
0331 3:33 am N 24 38----30.34- 17.6- -4.7---
0331 3:23 am N 24 37----30.34- 17.8- -4.7---
0331 3:13 am N 25 38----30.34- 18.0- -4.4---
0331 3:03 am N 25 36----30.34- 18.1- -4.4---
0331 2:53 am N 22 34----30.35- 18.5- -4.4---
0331 2:43 am N 23 32----30.34- 18.5- -4.2---
0331 2:33 am N 25 48----30.34- 18.5- -3.8---
0331 2:23 am N 27 39----30.34- 18.5- -4.4---
0331 2:13 am N 25 38----30.33- 18.5- -4.9---
0331 2:03 am N 23 36----30.34- 18.7- -4.5---
0331 1:53 am N 24 37----30.33- 18.7- -4.5---
0331 1:43 am N 25 40----30.33- 18.9- -4.4---
0331 1:33 am N 23 40----30.33- 18.9- -4.5---
0331 1:23 am N 22 32----30.33- 19.0- -4.5---
0331 1:13 am N 25 41----30.32- 19.4- -4.2---
0331 1:03 am N 22 32----30.32- 19.2- -4.7---
033112:53 am N 24 39----30.32- 19.4- -4.5---
033112:43 am N 24 39----30.32- 19.2- -4.5---
033112:33 am N 23 33----30.31- 19.2- -4.7---
033112:23 am N 24 35----30.31- 19.6- -4.7---
033112:13 am N 21 31----30.31- 20.5- -3.8---
033112:03 am N 25 46----30.30- 20.7- -3.5---
033011:53 pmNNW 26 42----30.29- 20.8- -2.9---
033011:43 pmNNW 26 39----30.29- 21.0- -3.1---
033011:33 pmNNW 28 43----30.29- 21.0- -2.7---
033011:23 pmNNW 31 46----30.28- 21.2- -2.6---
033011:13 pmNNW 25 44----30.28- 21.6- -2.7---
033011:03 pmNNW 27 43----30.28- 21.6- -2.4---
033010:53 pmNNW 30 48----30.27- 21.6- -2.4---
033010:43 pmNNW 29 46----30.27- 21.7- -2.0---
033010:33 pmNNW 29 50----30.26- 21.7- -2.2---
033010:23 pmNNW 30 48----30.26- 21.9- -1.7---
033010:13 pmNNW 32 45----30.26- 21.9- -1.7---
033010:03 pmNNW 27 46----30.26- 22.1- -2.0---
0330 9:53 pmNNW 27 49----30.25- 22.3- -1.8---
0330 9:43 pmNNW 28 42----30.25- 22.3- -1.7---
0330 9:33 pmNNW 30 44----30.24- 22.6- -1.7---
0330 9:23 pmNNW 31 48----30.24- 22.6- -1.1---
0330 9:13 pmNNW 32 58----30.23- 22.6- -1.1---
0330 9:03 pmNNW 30 44----30.23- 22.6- -1.7---
0330 8:53 pmNNW 28 51----30.23- 22.8- -1.5---
0330 8:43 pmNNW 30 52----30.23- 22.8- -1.1---
0330 8:33 pmNNW 32 51----30.22- 22.6- -0.9---
0330 8:23 pmNNW 34 53----30.22- 22.8- -0.6---
0330 8:13 pmNNW 33 55----30.21- 22.8- -0.6---
0330 8:03 pmNNW 31 49----30.21- 22.6- -0.9---
0330 7:53 pmNNW 34 53----30.21- 22.6- -0.6---
0330 7:43 pmNNW 35 53----30.20- 22.6- -0.4---
0330 7:33 pmNNW 30 47----30.20- 22.6- -1.1---
0330 7:23 pmNNW 33 53----30.20- 22.5- -0.6---
0330 7:13 pmNNW 31 48----30.20- 22.5- -0.8---
0330 7:03 pmNNW 35 52----30.20- 22.3- -0.2---
0330 6:53 pmNNW 34 52----30.19- 22.3- -0.4---
0330 6:43 pmNNW 33 50----30.19- 22.3- -0.8---
0330 6:33 pmNNW 33 49----30.19- 22.1- -0.4---
0330 6:23 pmNNW 35 60----30.19- 22.1- -0.6---
0330 6:13 pmNNW 35 50----30.19- 22.1- -0.4---
0330 6:03 pmNNW 33 47----30.18- 22.1- -0.8---
0330 5:53 pmNNW 33 59----30.18- 22.1- -0.8---
0330 5:43 pmNNW 35 57----30.18- 22.1- -0.6---
0330 5:33 pmNNW 34 53----30.18- 22.1- -0.8---
0330 5:23 pmNNW 33 45----30.18- 21.9- -1.1---
0330 5:13 pmNNW 35 54----30.18- 21.9- -0.6---
0330 5:03 pmNNW 38 63----30.18- 21.7- -0.6---
0330 4:53 pmNNW 36 54----30.18- 21.7- -0.8---
0330 4:43 pmNNW 34 51----30.18- 21.6- -1.5---
0330 4:33 pmNNW 33 54----30.18- 21.6- -1.1---
0330 4:23 pmNNW 35 51----30.18- 21.4- -1.1---
0330 4:13 pmNNW 32 54----30.18- 21.4- -1.5---
0330 3:53 pmNNW 38 57----30.17- 20.8- -1.1---
0330 3:43 pmNNW 38 71----30.18- 20.7- -1.1---
0330 3:33 pmNNW 38 58----30.18- 20.7- -1.3---
0330 3:23 pmNNW 38 65----30.18- 20.5- -1.5---
0330 3:13 pmNNW 36 59----30.18- 20.5- -1.5---
0330 3:03 pmNNW 37 55----30.18- 19.9- -1.8---
0330 2:53 pmNNW 32 52----30.19- 20.1- -2.2---
0330 2:43 pmNNW 35 55----30.19- 19.8- -1.8---
0330 2:33 pmNNW 39 64----30.18- 19.6- -2.0---
0330 2:23 pmNNW 33 56----30.19- 19.6- -2.4---
0330 2:13 pmNNW 38 61----30.18- 19.2- -2.0---
0330 2:03 pmNNW 40 65----30.19- 19.0- -2.0---
0330 1:53 pmNNW 37 59----30.19- 19.0- -2.4---
0330 1:43 pmNNW 37 60----30.19- 18.9- -2.6---
0330 1:33 pmNNW 35 61----30.19- 18.7- -2.9---
0330 1:23 pmNNW 34 59----30.19- 18.7- -3.5---
0330 1:13 pmNNW 30 53----30.20- 18.9- -3.6---
0330 1:03 pmNNW 32 50----30.19- 18.3- -3.5---
033012:53 pmNNW 34 51----30.19- 18.0- -3.6---
033012:43 pmNNW 33 52----30.19- 18.1- -3.6---
033012:33 pmNNW 33 49----30.20- 17.8- -3.6---
033012:23 pmNNW 35 57----30.19- 17.6- -3.8---
033012:13 pmNNW 38 58----30.19- 17.4- -3.5---
033012:03 pmNNW 34 58----30.20- 17.4- -3.8---
033011:53 amNNW 34 48----30.20- 17.1- -4.0---

Description of Measurements

Links which are specific to this station are listed below:

Real Time Data in tabular form for the last forty-five days.

Historical Data & Climatic Summaries for quality controlled data for the current month, previous months, and previous years.